FW8389 Weather Reports


time (UTC)temp
C
wind
direction
speed
KPH
gust
KPH
rain 1hr
cm
rain 24hr
cm
rain mn
cm
humidity
%
barometer
mb
20260506122703 2 350 4.8 9.7 0.00 0.00 0.00 76 1006.8
20260506121824 2 357 4.8 12.9 0.00 0.00 0.00 77 1006.6
20260506120903 2 355 4.8 9.7 0.00 0.00 0.00 78 1006.5
20260506120024 2 1 4.8 9.7 0.00 0.00 0.00 79 1006.5
20260506115403 2 360 6.4 14.5 0.00 0.00 0.00 79 1006.4
20260506114503 2 1 6.4 12.9 0.00 0.00 0.00 80 1006.2
20260506113603 1 8 4.8 11.3 0.00 0.00 0.00 81 1006.1
20260506112703 1 6 6.4 14.5 0.00 0.00 0.00 82 1006.0
20260506111803 1 5 4.8 9.7 0.00 0.00 0.00 83 1005.9
20260506110903 1 5 4.8 9.7 0.00 0.00 0.00 83 1005.8
20260506110003 1 3 4.8 9.7 0.00 0.00 0.00 83 1005.9
20260506105403 1 3 6.4 16.1 0.00 0.00 0.00 83 1005.8
20260506104524 1 2 6.4 14.5 0.00 0.00 0.00 83 1005.5
20260506103603 1 2 8.0 16.1 0.00 0.00 0.00 84 1005.3
20260506102703 2 357 6.4 14.5 0.00 0.00 0.00 84 1005.2
20260506101803 2 355 8.0 16.1 0.00 0.00 0.00 84 1005.1
20260506100903 2 5 8.0 16.1 0.00 0.00 0.00 83 1005.1
20260506100003 2 5 9.7 17.7 0.00 0.00 0.00 82 1005.1
20260506095424 2 2 8.0 17.7 0.00 0.00 0.00 81 1005.0
20260506094503 2 6 8.0 16.1 0.00 0.00 0.00 79 1005.1
20260506093603 2 8 11.3 20.9 0.00 0.00 0.00 78 1005.0
20260506092703 3 5 9.7 17.7 0.00 0.00 0.00 78 1004.9
20260506091824 3 358 8.0 19.3 0.00 0.00 0.00 77 1005.2
20260506090903 3 359 8.0 14.5 0.00 0.00 0.00 76 1005.4
20260506090003 4 15 4.8 14.5 0.00 0.00 0.00 76 1005.3
20260506085424 5 83 0.0 4.8 0.00 0.00 0.00 77 1005.0
20260506084503 5 84 0.0 1.6 0.00 0.00 0.00 74 1005.4
20260506083603 5 84 1.6 4.8 0.00 0.00 0.00 73 1005.2
20260506082703 5 84 1.6 4.8 0.00 0.00 0.00 73 1005.2
20260506081803 5 0 0.0 0.0 0.00 0.00 0.00 72 1005.5
20260506080903 5 0 0.0 0.0 0.00 0.00 0.00 72 1005.5
20260506072703 5 0 0.0 0.0 0.00 0.00 0.00 72 1004.9
20260506071803 5 84 0.0 3.2 0.00 0.00 0.00 71 1005.2
20260506070903 5 84 0.0 3.2 0.00 0.00 0.00 70 1005.0
20260506061803 5 85 1.6 4.8 0.00 0.03 0.00 70 1005.4
20260506060903 5 86 1.6 3.2 0.00 0.05 0.00 71 1005.4
20260506050903 5 88 1.6 4.8 0.00 0.05 0.00 71 1005.8
20260506044503 5 90 1.6 6.4 0.00 0.05 0.00 71 1005.6
20260506043603 5 95 1.6 6.4 0.00 0.05 0.00 71 1005.6
20260506042724 5 98 1.6 4.8 0.00 0.05 0.00 72 1005.4
20260506041803 5 99 3.2 6.4 0.00 0.05 0.00 72 1005.5
20260506040903 4 99 3.2 4.8 0.00 0.05 0.00 73 1005.5
20260506040003 4 99 3.2 4.8 0.00 0.05 0.00 73 1005.6
20260506035403 4 99 3.2 4.8 0.00 0.05 0.05 73 1005.5
20260506034503 4 99 3.2 4.8 0.00 0.05 0.05 73 1005.4
20260506033603 4 99 3.2 4.8 0.00 0.05 0.05 73 1005.3
20260506032703 4 94 3.2 6.4 0.00 0.05 0.05 73 1005.4
20260506031803 4 89 0.0 4.8 0.00 0.05 0.05 74 1005.4
20260506030924 4 0 0.0 0.0 0.00 0.05 0.05 74 1005.6
20260506030003 3 0 0.0 0.0 0.00 0.05 0.05 75 1005.6
20260506025403 4 0 0.0 0.0 0.00 0.05 0.05 75 1005.7
20260506024503 4 88 0.0 3.2 0.00 0.05 0.05 75 1005.6
20260506023603 4 0 0.0 0.0 0.00 0.05 0.05 75 1005.7
20260506022703 4 0 0.0 0.0 0.00 0.05 0.05 76 1005.8
20260506021803 4 88 1.6 4.8 0.00 0.05 0.05 76 1005.9
20260506020903 4 88 1.6 4.8 0.00 0.05 0.05 75 1005.9
20260506020003 4 88 1.6 3.2 0.00 0.05 0.05 75 1005.8
20260506015403 4 88 0.0 3.2 0.00 0.05 0.05 74 1005.7
20260506014503 4 0 0.0 0.0 0.00 0.05 0.05 75 1005.7
20260506013603 4 87 1.6 3.2 0.00 0.05 0.05 75 1005.6
20260506012703 4 87 1.6 4.8 0.00 0.05 0.05 75 1005.4
20260506011803 4 86 1.6 3.2 0.00 0.05 0.05 74 1005.4
20260506010903 4 0 0.0 0.0 0.00 0.05 0.05 74 1005.3
20260506010003 5 0 0.0 0.0 0.00 0.05 0.05 73 1005.1
20260506005424 5 0 0.0 0.0 0.00 0.05 0.05 73 1005.1
20260506004504 5 0 0.0 0.0 0.00 0.05 0.05 72 1005.1
20260506003603 5 0 0.0 0.0 0.00 0.05 0.05 72 1005.1
20260506002724 5 0 0.0 0.0 0.00 0.05 0.05 72 1005.0
20260506001803 5 85 0.0 4.8 0.00 0.05 0.05 71 1004.9
20260506000903 5 86 0.0 4.8 0.00 0.05 0.05 71 1004.9
20260506000024 5 86 0.0 4.8 0.00 0.05 0.05 70 1004.9
20260505235403 5 85 1.6 4.8 0.00 0.05 0.05 70 1004.8
20260505234503 5 84 1.6 6.4 0.00 0.05 0.05 70 1004.8
20260505233603 5 74 1.6 8.0 0.00 0.05 0.05 69 1004.8
20260505232703 5 57 3.2 8.0 0.00 0.05 0.05 69 1004.8
20260505231803 6 65 3.2 6.4 0.00 0.05 0.05 69 1004.8
20260505230903 6 51 3.2 6.4 0.00 0.05 0.05 69 1004.8
20260505230003 6 48 4.8 6.4 0.00 0.05 0.05 68 1004.9
20260505225403 6 36 4.8 8.0 0.00 0.05 0.05 68 1004.9
20260505224503 6 13 6.4 14.5 0.00 0.05 0.05 67 1004.8
20260505223603 6 14 6.4 12.9 0.00 0.05 0.05 68 1004.9
20260505222703 6 7 8.0 14.5 0.00 0.05 0.05 68 1005.0
20260505221803 6 13 8.0 14.5 0.00 0.05 0.05 67 1005.0
20260505220903 6 14 8.0 17.7 0.00 0.05 0.05 67 1005.0
20260505220003 6 18 8.0 16.1 0.00 0.05 0.05 67 1004.8
20260505215424 6 16 8.0 16.1 0.00 0.05 0.05 67 1004.9
20260505214503 7 18 6.4 14.5 0.00 0.05 0.05 67 1004.8
20260505213603 7 8 9.7 17.7 0.00 0.05 0.05 66 1004.8
20260505212724 7 9 9.7 17.7 0.00 0.05 0.05 65 1004.7
20260505211803 7 6 11.3 17.7 0.00 0.05 0.05 64 1004.6
20260505210903 7 7 9.7 17.7 0.00 0.05 0.05 64 1004.6
20260505210024 7 7 11.3 17.7 0.00 0.05 0.05 65 1004.4
20260505205403 7 6 8.0 17.7 0.00 0.05 0.05 63 1004.3
20260505204503 8 5 9.7 16.1 0.00 0.05 0.05 64 1004.4
20260505203603 8 333 9.7 32.2 0.00 0.05 0.05 61 1004.2
20260505202703 10 268 17.7 32.2 0.00 0.05 0.05 58 1004.2
20260505201803 10 275 19.3 35.4 0.00 0.05 0.05 58 1004.1
20260505200924 10 280 16.1 25.7 0.00 0.05 0.05 58 1004.1
20260505200003 10 288 12.9 29.0 0.00 0.05 0.05 58 1004.0
20260505195403 9 267 11.3 24.1 0.00 0.05 0.05 59 1003.7
20260505194503 8 266 9.7 19.3 0.00 0.05 0.05 61 1003.7
20260505193603 8 265 8.0 22.5 0.00 0.05 0.05 60 1003.7
20260505192703 8 270 11.3 22.5 0.00 0.05 0.05 60 1003.7
20260505191803 8 268 11.3 22.5 0.00 0.05 0.05 62 1003.8
20260505190903 8 266 11.3 24.1 0.00 0.05 0.05 63 1003.7
20260505190003 8 272 12.9 22.5 0.00 0.05 0.05 63 1003.7
20260505185424 8 278 14.5 22.5 0.00 0.05 0.05 62 1003.6
20260505184503 8 278 12.9 22.5 0.00 0.05 0.05 62 1003.4
20260505183603 8 267 14.5 22.5 0.00 0.05 0.05 62 1003.4
20260505182703 8 266 14.5 24.1 0.00 0.05 0.05 62 1003.3
20260505181824 7 266 14.5 24.1 0.00 0.05 0.05 62 1003.2
20260505180903 8 269 12.9 25.7 0.00 0.05 0.05 61 1003.2
20260505180003 7 261 12.9 27.4 0.00 0.05 0.05 60 1002.9
20260505175424 7 264 12.9 22.5 0.00 0.05 0.05 61 1002.8
20260505174503 7 262 12.9 25.7 0.00 0.05 0.05 64 1002.9
20260505173603 7 263 12.9 22.5 0.00 0.05 0.05 63 1002.8
20260505172703 7 272 16.1 25.7 0.00 0.05 0.05 64 1002.5
20260505171803 7 286 14.5 24.1 0.00 0.05 0.05 62 1002.6
20260505170903 7 283 14.5 27.4 0.00 0.05 0.05 64 1002.5
20260505170003 7 278 14.5 25.7 0.00 0.05 0.05 63 1002.4
20260505165403 8 295 11.3 20.9 0.00 0.05 0.05 62 1002.2
20260505164524 8 288 12.9 24.1 0.00 0.05 0.05 61 1002.0
20260505163603 8 285 16.1 25.7 0.00 0.05 0.05 61 1002.3
20260505162703 8 290 12.9 27.4 0.00 0.05 0.05 60 1002.0
20260505161803 8 282 12.9 25.7 0.00 0.05 0.05 63 1001.9
20260505160903 8 281 9.7 19.3 0.00 0.05 0.05 67 1001.9
20260505152703 8 298 11.3 20.9 0.00 0.05 0.05 68 1001.7
20260505151803 8 303 11.3 25.7 0.00 0.05 0.05 69 1001.5
20260505150903 8 287 12.9 25.7 0.00 0.05 0.05 69 1001.4
20260505124503 7 278 6.4 12.9 0.00 0.05 0.05 84 999.3
20260505123603 7 278 8.0 16.1 0.00 0.05 0.05 85 999.3